EW8369 New Plymouth NZ current weather conditions

sailwx.info

Wind from 318 at 5 knots gusting 8

Air temperature 20.0° C
Dewpoint 17.2° C

Last reported at 2020-Jan-26 07:01 UTC.
Time now 2020-Jan-26 07:55 UTC

Location: S 39°24' E 174°21'.
View on Google Maps.

See reports from other nearby stations

  
Tides and Currents Weather Stations Pressure Air Temp Water Temp Dewpoint Dewpoint Depression Visibility Wind Speed Wind Dir Waves Ship Positions
date/time (UTC)wind fromknots sea level pressurealtimeterstation pressurevisibilityair tempwater tempwave heightnotes
2020-Jan-26 07:01 318 5 gusting 8 20.0
2020-Jan-26 06:46 334 2 gusting 7 20.6
2020-Jan-26 06:32 338 2 gusting 6 21.1
2020-Jan-26 06:16 339 1 gusting 8 21.1
2020-Jan-26 06:02 355 2 gusting 13 21.1
2020-Jan-26 05:47 348 2 gusting 9 21.7
2020-Jan-26 05:31 319 2 gusting 13 21.7
2020-Jan-26 05:16 343 1 gusting 11 22.2
2020-Jan-26 05:01 342 4 gusting 10 22.8
2020-Jan-26 04:46 218 2 gusting 10 23.9
2020-Jan-26 04:32 348 4 gusting 12 23.9
2020-Jan-26 04:16 355 4 gusting 12 24.4
2020-Jan-26 04:01 355 6 gusting 10 25.0
2020-Jan-26 03:46 286 0 gusting 10 25.6
2020-Jan-26 03:31 329 2 gusting 8 26.1
2020-Jan-26 03:15 343 1 gusting 8 25.6
2020-Jan-26 03:00 348 3 gusting 9 25.0
2020-Jan-26 02:45 342 5 gusting 8 25.0
2020-Jan-26 02:31 005 6 gusting 11 25.0
2020-Jan-26 02:15 342 2 gusting 7 25.0
2020-Jan-26 02:00 336 3 gusting 9 25.0
2020-Jan-26 01:45 313 1 gusting 10 25.0
2020-Jan-26 01:30 360 1 gusting 9 24.4
2020-Jan-26 01:15 267 1 gusting 7 24.4
2020-Jan-26 01:00 355 4 gusting 7 24.4
2020-Jan-26 00:45 348 4 gusting 6 24.4
2020-Jan-26 00:30 277 2 gusting 9 23.3
2020-Jan-26 00:16 339 4 gusting 7 23.3
2020-Jan-26 00:01 341 2 gusting 8 23.3
2020-Jan-25 23:45 274 1 gusting 6 23.9
2020-Jan-25 23:30 350 0 gusting 5 23.3
2020-Jan-25 23:16 346 3 gusting 9 22.8
2020-Jan-25 23:00 339 3 gusting 8 21.7
2020-Jan-25 22:45 005 5 gusting 9 21.7
2020-Jan-25 22:30 275 0 gusting 8 22.2
2020-Jan-25 22:15 349 2 gusting 6 21.7
2020-Jan-25 22:00 338 4 gusting 7 20.6
2020-Jan-25 21:46 350 3 gusting 8 20.6
2020-Jan-25 21:30 349 3 gusting 8 20.6
2020-Jan-25 21:15 005 4 gusting 10 19.4
2020-Jan-25 21:00 350 4 gusting 7 19.4
2020-Jan-25 20:45 005 3 gusting 6 18.9
2020-Jan-25 20:30 341 0 gusting 3 18.9
2020-Jan-25 20:15 350 2 gusting 5 18.3
2020-Jan-25 20:00 086 1 gusting 3 18.3
2020-Jan-25 19:45 114 2 gusting 3 17.8
2020-Jan-25 19:30 082 1 gusting 3 17.8
2020-Jan-25 19:15 071 1 gusting 5 17.2
2020-Jan-25 19:00 060 1 gusting 4 17.2
2020-Jan-25 18:47 355 17.2
2020-Jan-25 18:32 355 16.7
2020-Jan-25 18:17 183 16.7
2020-Jan-25 18:02 183 16.7
2020-Jan-25 17:47 184 16.7
2020-Jan-25 17:32 184 16.1
2020-Jan-25 17:17 183 16.1
2020-Jan-25 17:02 183 16.1
2020-Jan-25 16:47 183 16.1
2020-Jan-25 16:31 183 16.1
2020-Jan-25 16:19 183 16.7
2020-Jan-25 16:02 183 16.1
2020-Jan-25 15:46 184 16.1
2020-Jan-25 15:31 183 16.1
2020-Jan-25 15:17 184 16.7
2020-Jan-25 15:02 181 16.7
2020-Jan-25 14:47 150 0 gusting 1 16.7
2020-Jan-25 14:31 082 16.7
2020-Jan-25 14:16 086 17.2
2020-Jan-25 14:02 086 17.2
2020-Jan-25 13:47 086 0 gusting 3 17.2
2020-Jan-25 13:31 105 0 gusting 3 17.2
2020-Jan-25 13:17 109 1 gusting 3 17.2
2020-Jan-25 13:01 129 17.2
2020-Jan-25 12:46 128 1 gusting 4 16.7
2020-Jan-25 12:31 122 0 gusting 5 16.7
2020-Jan-25 12:16 229 16.1
2020-Jan-25 12:01 252 16.1
2020-Jan-25 11:46 252 16.1
2020-Jan-25 11:33 252 15.6
2020-Jan-25 11:16 257 15.0
2020-Jan-25 11:01 275 15.0
2020-Jan-25 10:45 275 15.0
2020-Jan-25 10:30 275 15.6
2020-Jan-25 10:16 275 15.6
2020-Jan-25 10:01 275 16.1
2020-Jan-25 09:46 275 16.1
2020-Jan-25 09:30 275 16.7
2020-Jan-25 09:15 275 17.2
2020-Jan-25 09:01 275 17.8
2020-Jan-25 08:45 275 17.8
2020-Jan-25 08:30 275 17.8
2020-Jan-25 08:15 275 18.3
2020-Jan-25 08:00 275 18.9
2020-Jan-25 07:45 040 19.4
2020-Jan-25 07:30 045 0 gusting 2 19.4
2020-Jan-25 07:15 045 1 gusting 4 19.4
2020-Jan-25 07:00 049 2 gusting 5 20.0
2020-Jan-25 06:47 360 3 gusting 11 20.0
2020-Jan-25 06:31 355 5 gusting 10 20.0
2020-Jan-25 06:17 337 3 gusting 8 20.6
2020-Jan-25 06:02 355 3 gusting 8 20.6
2020-Jan-25 05:47 031 1 gusting 6 21.1
2020-Jan-25 05:31 094 0 gusting 7 21.1
2020-Jan-25 05:16 349 4 gusting 11 21.7
2020-Jan-25 05:02 340 4 gusting 12 21.7
2020-Jan-25 04:46 345 6 gusting 13 21.7
2020-Jan-25 04:32 347 8 gusting 13 22.8
2020-Jan-25 04:17 342 6 gusting 13 23.9
2020-Jan-25 04:01 024 5 gusting 13 24.4
2020-Jan-25 03:46 355 5 gusting 11 23.9
2020-Jan-25 03:32 005 5 gusting 9 24.4
2020-Jan-25 03:17 060 6 gusting 10 24.4
2020-Jan-25 03:02 028 5 gusting 13 24.4
2020-Jan-25 02:46 035 7 gusting 12 23.9
2020-Jan-25 02:31 079 2 gusting 6 22.8
2020-Jan-25 02:16 126 1 gusting 6 22.2
2020-Jan-25 02:01 105 1 gusting 6 22.2
2020-Jan-25 01:47 080 5 gusting 8 21.7
2020-Jan-25 01:31 129 6 gusting 13 22.8
2020-Jan-25 01:16 342 7 gusting 13 23.3
2020-Jan-25 01:01 028 9 gusting 15 23.3
2020-Jan-25 00:45 348 8 gusting 13 22.8
2020-Jan-25 00:32 044 10 gusting 18 22.8
2020-Jan-25 00:15 005 12 gusting 15 23.3
2020-Jan-25 00:00 024 10 gusting 16 23.3
2020-Jan-24 23:46 075 5 gusting 14 22.2
2020-Jan-24 23:30 107 0 gusting 6 21.7
2020-Jan-24 23:17 113 1 gusting 5 21.7
2020-Jan-24 23:01 123 2 gusting 6 21.7
2020-Jan-24 22:46 105 4 gusting 7 21.1
2020-Jan-24 22:31 125 5 gusting 7 20.6
2020-Jan-24 22:16 137 5 gusting 7 20.0
2020-Jan-24 22:00 101 4 gusting 6 19.4
2020-Jan-24 21:45 113 5 gusting 7 19.4
2020-Jan-24 21:31 104 4 gusting 8 18.9
2020-Jan-24 21:15 131 4 gusting 9 18.9
2020-Jan-24 21:01 130 5 gusting 8 18.3
2020-Jan-24 20:45 115 5 gusting 7 18.3
2020-Jan-24 20:31 121 6 gusting 10 17.8
2020-Jan-24 20:15 117 6 gusting 9 16.7
2020-Jan-24 20:02 113 6 gusting 8 16.1
2020-Jan-24 19:48 114 6 gusting 7 16.1
2020-Jan-24 19:32 113 4 gusting 11 15.6
2020-Jan-24 19:17 126 6 gusting 9 15.0
2020-Jan-24 19:02 132 2 gusting 7 14.4
2020-Jan-24 18:46 148 13.9
2020-Jan-24 18:32 133 1 gusting 4 13.3
2020-Jan-24 18:18 139 0 gusting 4 12.8
2020-Jan-24 18:01 121 0 gusting 5 12.8
2020-Jan-24 17:47 141 0 gusting 3 12.8
2020-Jan-24 17:31 137 1 gusting 7 12.8
2020-Jan-24 17:17 138 5 gusting 10 13.3
2020-Jan-24 17:01 119 5 gusting 10 13.3
2020-Jan-24 16:46 129 5 gusting 9 13.3
2020-Jan-24 16:32 123 5 gusting 8 13.3
2020-Jan-24 16:16 135 0 gusting 7 13.3
2020-Jan-24 16:01 150 13.3
2020-Jan-24 15:45 158 3 gusting 6 13.3
2020-Jan-24 15:30 134 4 gusting 7 13.3
2020-Jan-24 15:17 148 3 gusting 6 13.3
2020-Jan-24 15:00 139 1 gusting 5 13.3
2020-Jan-24 14:46 136 0 gusting 3 13.3
2020-Jan-24 14:31 124 1 gusting 5 13.3
2020-Jan-24 14:15 132 2 gusting 4 13.3
2020-Jan-24 14:00 236 11.1
2020-Jan-24 13:45 272 9.4
2020-Jan-24 13:30 272 8.9
2020-Jan-24 13:17 272 8.9
2020-Jan-24 13:01 272 9.4
2020-Jan-24 12:46 272 10.0
2020-Jan-24 12:30 272 9.4
2020-Jan-24 12:15 272 9.4
2020-Jan-24 12:00 272 9.4
2020-Jan-24 11:45 272 10.6
2020-Jan-24 11:32 272 10.6
2020-Jan-24 11:16 272 11.1
2020-Jan-24 11:02 272 11.7
2020-Jan-24 10:46 272 12.2
2020-Jan-24 10:31 272 12.2
2020-Jan-24 10:16 272 13.3
2020-Jan-24 10:02 272 13.3
2020-Jan-24 09:46 272 13.9
2020-Jan-24 09:31 272 14.4
2020-Jan-24 09:16 272 14.4
2020-Jan-24 09:01 277 0 gusting 2 15.0
2020-Jan-24 08:46 279 15.6
2020-Jan-24 08:30 280 15.6
2020-Jan-24 08:15 279 0 gusting 3 16.1
2020-Jan-24 08:00 281 1 gusting 3 17.2
2020-Jan-24 07:45 285 18.3
2020-Jan-24 07:30 286 19.4
2020-Jan-24 07:17 280 20.6
2020-Jan-24 07:04 279 20.6